Dewpoint
74 75 74 74 74 73 74 73 72 72 75 74 74 74 75 78 77 75 75 77 77 77 78 79 78 78 77 79 79 81 81 78 83 77 77 76 75 71 69 71 74 80
74 74 75 74 76 76 75 73 74 74 76 77 75 75 76 77 76 77 76 75 76 76 78 77 78 78 78 78 78 78 79 78 78 75 76 76 77 73 70 74 71 74
73 74 72 72 70 71 67 70 73 73 73 72 74 76 75 73 75 76 77 76 75 75 78 78 78 79 77 79 79 78 78 79 78 76 76 77 76 75 76 69 71 71
74 72 71 69 70 69 69 71 73 73 71 73 72 71 71 70 74 74 76 76 76 76 76 77 77 76 77 78 80 79 78 80 78 78 78 78 77 75 74 76 72 71
72 72 71 70 70 71 71 69 67 69 69 71 70 74 76 77 74 73 75 75 77 75 76 76 77 76 78 78 78 78 77 79 78 79 79 78 78 77 75 74 76 74
74 74 73 72 71 72 69 68 68 68 68 67 69 70 72 73 72 73 73 72 72 71 72 73 74 74 75 77 78 78 77 76 75 78 77 77 76 75 71 75 76 76
71 73 70 70 69 69 69 69 69 69 67 66 70 69 71 70 72 73 73 73 71 72 70 73 76 75 76 77 78 78 78 77 77 78 77 76 78 77 73 76 79 77
71 71 70 70 68 67 67 68 67 69 69 69 67 70 70 69 71 70 72 72 70 71 73 72 75 77 72 74 76 77 76 73 76 77 77 77 77 76 76 75 76 77
71 71 71 69 66 66 64 64 66 66 69 68 65 65 68 69 70 69 73 73 72 73 74 74 75 73 73 73 74 76 75 73 71 75 76 76 75 76 75 75 75 76
72 72 70 68 65 64 64 64 64 66 67 66 64 63 64 69 70 70 72 74 73 74 74 73 75 73 72 73 75 74 74 75 75 75 74 74 74 74 73 74 73 74
67 69 69 68 65 62 62 62 62 64 66 65 64 62 64 65 69 71 72 73 69 72 73 73 73 73 74 71 71 72 73 72 73 75 75 74 74 75 74 74 73 72
70 66 66 67 66 62 60 60 61 62 65 66 65 63 64 64 66 66 70 72 71 71 72 73 73 73 74 73 71 70 72 72 73 74 72 73 72 72 73 73 72 73
71 69 65 64 66 64 60 60 59 59 62 64 65 65 63 61 64 66 68 71 72 71 71 73 73 73 75 75 73 72 72 72 70 71 71 71 71 69 69 69 70 70
74 72 71 67 67 69 66 60 59 59 61 64 65 65 63 61 60 63 66 67 70 70 72 73 74 73 74 75 74 73 71 72 71 70 68 69 68 69 67 66 67 68
74 73 73 72 70 70 69 66 62 62 63 64 66 64 61 61 60 60 65 66 68 70 71 71 71 72 72 73 74 74 73 69 70 69 69 69 69 66 67 67 65 64
74 74 75 75 72 70 72 70 68 64 60 62 63 64 65 66 66 64 63 65 67 69 71 70 70 70 72 70 71 73 73 69 69 70 69 69 70 69 66 65 62 61
74 74 73 73 74 73 72 73 71 69 68 68 67 66 67 70 67 64 61 62 65 66 68 68 67 67 69 65 66 69 72 72 70 71 71 71 70 72 70 66 64 65
75 74 74 73 74 74 73 72 73 74 75 77 68 65 70 69 66 66 66 62 60 64 65 66 67 68 63 64 65 65 69 72 70 69 68 69 69 68 68 67 65 63
73 74 73 73 74 74 75 75 74 73 73 73 71 67 66 68 70 67 67 66 63 66 62 65 67 66 61 63 64 63 64 69 70 69 65 64 66 68 67 68 69 68
73 73 73 73 73 74 75 75 75 75 73 71 70 72 73 70 66 69 69 70 68 67 70 65 66 66 60 60 62 62 63 65 70 68 67 64 64 65 65 67 69 70
70 71 72 73 72 73 73 74 75 74 75 74 72 70 71 74 69 68 70 71 68 66 66 63 58 61 58 58 59 60 61 64 70 68 65 65 65 65 67 67 70 70
68 69 71 72 73 73 72 72 72 72 73 74 74 73 70 70 72 70 69 70 70 68 65 65 61 56 57 57 58 59 60 67 70 70 68 65 63 65 66 69 71 71
68 68 69 70 72 73 72 72 72 73 74 75 74 75 74 71 71 70 71 69 69 70 69 69 67 63 56 55 56 57 60 69 70 70 70 68 66 66 67 69 68 68
68 69 69 69 71 72 73 73 72 73 74 74 75 74 74 72 72 70 70 70 69 69 68 70 70 68 57 53 54 56 62 69 70 70 70 70 69 68 68 68 69 71
67 69 69 70 69 71 73 72 72 72 74 74 74 74 74 73 73 72 71 71 69 69 71 70 69 68 60 54 53 54 61 69 70 70 70 70 70 70 70 70 70 71
63 66 68 69 69 70 73 73 73 73 74 74 74 74 73 74 72 71 70 70 69 69 68 69 69 70 71 55 52 53 55 69 71 71 70 70 70 70 70 71 71 71